Location: Newark
(52.2583°N, 7.1190°W)
Time: 05:11:18
(UTC+00:00)

S-56A Canister/Altair - Pass Details

Date: 23 November 2019
Orbit: 633 x 2499 km, 38.9° (Epoch: 07 December)

Event Time Altitude Azimuth Distance (km) Brightness Sun altitude
Rises 19:19:02 0° 259° (W) 4,954 13.0 -25.7°
Reaches altitude 10° 19:23:18 10° 249° (WSW) 3,620 11.8 -26.4°
Maximum altitude 19:30:14 27° 197° (SSW) 2,048 9.8 -27.4°
Enters shadow 19:32:32 22° 167° (SSE) 2,083 9.5 -27.8°
